TimeMST,TemperatureF,Dew PointF,Humidity,Sea Level PressureIn,VisibilityMPH,Wind Direction,Wind SpeedMPH,Gust SpeedMPH,PrecipitationIn,Events,Conditions,WindDirDegrees,DateUTC
12:15 AM,41.0,41.0,100,30.14,7.0,Calm,Calm,-,N/A,,Scattered Clouds,0,2012-12-11 07:15:00
12:35 AM,39.2,39.2,100,30.14,2.0,SE,4.6,-,N/A,,Mostly Cloudy,140,2012-12-11 07:35:00
12:55 AM,41.0,41.0,100,30.13,0.8,SE,4.6,-,N/A,,Overcast,140,2012-12-11 07:55:00
1:15 AM,41.0,41.0,100,30.12,2.5,SSE,3.5,-,N/A,,Overcast,150,2012-12-11 08:15:00
1:35 AM,41.0,41.0,100,30.11,1.5,Calm,Calm,-,N/A,,Mostly Cloudy,0,2012-12-11 08:35:00
1:55 AM,41.0,41.0,100,30.10,0.8,Calm,Calm,-,N/A,,Mostly Cloudy,0,2012-12-11 08:55:00
2:15 AM,39.2,39.2,100,30.09,1.5,Calm,Calm,-,N/A,,Mostly Cloudy,0,2012-12-11 09:15:00
2:35 AM,41.0,41.0,100,30.09,10.0,SSE,3.5,-,N/A,,Overcast,150,2012-12-11 09:35:00
2:55 AM,42.8,42.8,100,30.07,10.0,Calm,Calm,-,N/A,,Overcast,0,2012-12-11 09:55:00
3:15 AM,42.8,42.8,100,30.06,10.0,Calm,Calm,-,N/A,,Overcast,0,2012-12-11 10:15:00
3:35 AM,42.8,42.8,100,30.04,10.0,Calm,Calm,-,N/A,,Overcast,0,2012-12-11 10:35:00
3:55 AM,42.8,42.8,100,30.06,10.0,Calm,Calm,-,N/A,,Overcast,0,2012-12-11 10:55:00
4:15 AM,42.8,42.8,100,30.04,5.0,Calm,Calm,-,N/A,,Overcast,0,2012-12-11 11:15:00
4:35 AM,42.8,42.8,100,30.02,4.0,Calm,Calm,-,N/A,,Drizzle,0,2012-12-11 11:35:00
4:55 AM,44.6,44.6,100,29.99,4.0,Calm,Calm,-,N/A,,Drizzle,0,2012-12-11 11:55:00
5:15 AM,44.6,44.6,100,29.97,10.0,ESE,3.5,-,N/A,,Overcast,120,2012-12-11 12:15:00
5:35 AM,44.6,44.6,100,29.96,10.0,SSE,5.8,-,N/A,,Overcast,150,2012-12-11 12:35:00
5:55 AM,44.6,44.6,100,29.95,5.0,Calm,Calm,-,N/A,Rain,Rain,0,2012-12-11 12:55:00
6:15 AM,44.6,44.6,100,29.93,10.0,SSE,4.6,-,N/A,,Overcast,160,2012-12-11 13:15:00
6:35 AM,44.6,44.6,100,29.93,10.0,Calm,Calm,-,N/A,,Overcast,0,2012-12-11 13:35:00
6:55 AM,44.6,44.6,100,29.92,10.0,Calm,Calm,-,N/A,,Overcast,0,2012-12-11 13:55:00
7:15 AM,44.6,44.6,100,29.91,10.0,Calm,Calm,-,N/A,,Overcast,0,2012-12-11 14:15:00
7:35 AM,44.6,44.6,100,29.91,7.0,Calm,Calm,-,N/A,,Drizzle,0,2012-12-11 14:35:00
7:55 AM,44.6,44.6,100,29.90,10.0,Calm,Calm,-,N/A,,Overcast,0,2012-12-11 14:55:00
8:15 AM,44.6,44.6,100,29.90,10.0,Calm,Calm,-,N/A,,Overcast,0,2012-12-11 15:15:00
8:35 AM,44.6,44.6,100,29.89,5.0,SE,4.6,-,N/A,Rain,Rain,130,2012-12-11 15:35:00
8:55 AM,46.4,46.4,100,29.87,10.0,SE,4.6,-,N/A,,Overcast,140,2012-12-11 15:55:00
9:15 AM,46.4,46.4,100,29.86,7.0,SE,5.8,-,N/A,,Overcast,140,2012-12-11 16:15:00
9:35 AM,46.4,46.4,100,29.84,10.0,SE,8.1,-,N/A,,Overcast,130,2012-12-11 16:35:00
9:55 AM,46.4,46.4,100,29.83,10.0,SSE,11.5,16.1,N/A,,Overcast,160,2012-12-11 16:55:00
10:15 AM,46.4,44.6,93,29.81,7.0,SSE,10.4,-,0.01,Rain,Light Rain,160,2012-12-11 17:15:00
10:35 AM,46.4,44.6,93,29.81,10.0,South,9.2,-,0.01,Rain,Rain,170,2012-12-11 17:35:00
10:55 AM,46.4,44.6,93,29.80,10.0,South,8.1,-,0.01,Rain,Light Rain,170,2012-12-11 17:55:00
11:15 AM,46.4,44.6,93,29.80,10.0,South,5.8,-,N/A,,Overcast,180,2012-12-11 18:15:00
11:35 AM,46.4,44.6,93,29.78,10.0,Calm,Calm,-,N/A,,Light Drizzle,0,2012-12-11 18:35:00
11:55 AM,46.4,44.6,93,29.78,10.0,South,3.5,-,N/A,,Overcast,180,2012-12-11 18:55:00
12:15 PM,46.4,44.6,93,29.76,7.0,South,6.9,-,N/A,Rain,Rain,180,2012-12-11 19:15:00
12:35 PM,46.4,44.6,93,29.75,7.0,SSE,4.6,-,0.02,Rain,Light Rain,150,2012-12-11 19:35:00
12:55 PM,48.2,44.6,87,29.74,7.0,SSE,8.1,-,0.03,Rain,Light Rain,150,2012-12-11 19:55:00
1:15 PM,48.2,44.6,87,29.72,7.0,SSE,8.1,-,0.02,Rain,Rain,150,2012-12-11 20:15:00
1:35 PM,48.2,44.6,87,29.70,7.0,SSE,9.2,-,0.04,Rain,Rain,160,2012-12-11 20:35:00
1:55 PM,48.2,44.6,87,29.69,10.0,South,9.2,-,0.07,Rain,Rain,180,2012-12-11 20:55:00
2:15 PM,48.2,44.6,87,29.69,7.0,South,5.8,-,0.05,Rain,Rain,180,2012-12-11 21:15:00
2:35 PM,48.2,44.6,87,29.66,10.0,SSE,9.2,-,0.07,Rain,Light Rain,160,2012-12-11 21:35:00
2:55 PM,48.2,44.6,87,29.65,10.0,South,8.1,-,0.09,Rain,Light Rain,170,2012-12-11 21:55:00
3:15 PM,48.2,44.6,87,29.63,5.0,SSE,4.6,-,0.02,Rain,Rain,160,2012-12-11 22:15:00
3:35 PM,48.2,46.4,93,29.62,4.0,SSE,4.6,-,0.06,Rain,Rain,150,2012-12-11 22:35:00
3:55 PM,48.2,46.4,93,29.62,7.0,South,10.4,-,0.07,Rain,Light Rain,180,2012-12-11 22:55:00
4:15 PM,48.2,46.4,93,29.63,5.0,WNW,11.5,23.0,0.01,Rain,Light Rain,290,2012-12-11 23:15:00
4:35 PM,48.2,46.4,93,29.64,7.0,Calm,Calm,-,0.03,Rain,Light Rain,0,2012-12-11 23:35:00
4:55 PM,48.2,46.4,93,29.64,10.0,West,3.5,-,0.03,Rain,Light Rain,270,2012-12-11 23:55:00
5:15 PM,48.2,46.4,93,29.63,7.0,Calm,Calm,-,0.02,Rain,Light Rain,0,2012-12-12 00:15:00
5:35 PM,48.2,46.4,93,29.63,3.0,SW,3.5,-,0.06,Rain,Rain,220,2012-12-12 00:35:00
5:55 PM,48.2,46.4,93,29.63,10.0,SSW,3.5,-,0.06,Rain,Rain,210,2012-12-12 00:55:00
6:15 PM,46.4,46.4,100,29.63,10.0,SW,3.5,-,0.01,,Overcast,230,2012-12-12 01:15:00
6:35 PM,48.2,44.6,87,29.64,10.0,West,4.6,-,0.01,Rain,Light Rain,270,2012-12-12 01:35:00
6:55 PM,46.4,44.6,93,29.64,10.0,WSW,3.5,-,0.02,,Overcast,250,2012-12-12 01:55:00
7:15 PM,48.2,44.6,87,29.64,10.0,West,6.9,-,N/A,,Overcast,280,2012-12-12 02:15:00
7:35 PM,46.4,44.6,93,29.64,10.0,WNW,3.5,-,N/A,,Drizzle,290,2012-12-12 02:35:00
7:55 PM,46.4,44.6,93,29.65,10.0,Calm,Calm,-,N/A,Rain,Rain,0,2012-12-12 02:55:00
8:15 PM,46.4,44.6,93,29.65,10.0,Calm,Calm,-,N/A,,Overcast,0,2012-12-12 03:15:00
8:35 PM,46.4,44.6,93,29.65,10.0,Calm,Calm,-,N/A,,Overcast,0,2012-12-12 03:35:00
8:55 PM,46.4,44.6,93,29.66,10.0,South,3.5,-,N/A,,Overcast,170,2012-12-12 03:55:00
9:15 PM,46.4,44.6,93,29.67,7.0,West,8.1,17.3,N/A,Rain,Light Rain,280,2012-12-12 04:15:00
9:35 PM,46.4,42.8,87,29.68,10.0,West,6.9,-,N/A,Rain,Light Rain,280,2012-12-12 04:35:00
9:55 PM,46.4,42.8,87,29.68,10.0,Calm,Calm,-,N/A,,Overcast,0,2012-12-12 04:55:00
10:15 PM,44.6,42.8,93,29.68,10.0,South,4.6,-,N/A,,Overcast,190,2012-12-12 05:15:00
10:35 PM,44.6,42.8,93,29.68,10.0,SSE,5.8,-,N/A,,Overcast,150,2012-12-12 05:35:00
10:55 PM,44.6,42.8,93,29.68,10.0,SSE,5.8,-,N/A,,Overcast,150,2012-12-12 05:55:00
11:15 PM,44.6,42.8,93,29.69,10.0,West,4.6,-,N/A,Rain,Rain,280,2012-12-12 06:15:00
11:35 PM,44.6,42.8,93,29.70,4.0,Calm,Calm,-,0.04,Rain,Rain,0,2012-12-12 06:35:00
11:55 PM,44.6,42.8,93,29.70,10.0,South,4.6,-,0.05,,Overcast,180,2012-12-12 06:55:00